AO-07 1 07530U 74089B 17271.89964253 -.00000010 00000-0 21401-3 0 9990 2 07530 101.6439 238.5882 0012312 119.7186 296.2641 12.53629042961627 UO-11 1 14781U 84021B 17272.21577893 .00000219 00000-0 33242-4 0 9997 2 14781 097.6866 314.0369 0007703 210.1400 149.9371 14.82935648784762 LO-19 1 20442U 90005G 17272.26085726 .00000044 00000-0 32224-4 0 9996 2 20442 098.5808 207.7429 0011335 195.2631 164.8213 14.32871718446464 HUBBLE 1 20580U 90037B 17272.28233917 .00000972 00000-0 49013-4 0 9997 2 20580 028.4704 039.6375 0002542 209.7872 339.4707 15.08865370305939 MET-2/21 1 22782U 93055A 17272.13527993 .00000018 00000-0 29559-5 0 9995 2 22782 082.5470 301.0950 0023346 137.0866 254.8402 13.83801996215805 AO-27 1 22825U 93061C 17271.95761678 .00000046 00000-0 35680-4 0 9991 2 22825 098.8250 238.8782 0009053 034.7931 325.3841 14.30007650252231 IO-26 1 22826U 93061D 17271.89486086 .00000038 00000-0 32429-4 0 9991 2 22826 098.8192 238.8843 0009441 025.3527 334.8116 14.30337175252152 FO-29 1 24278U 96046B 17272.13144874 -.00000047 00000-0 -13879-4 0 9994 2 24278 098.5457 141.4788 0351339 068.0810 295.7289 13.53078794042682 NOAA-15 1 25338U 98030A 17272.21472245 .00000038 00000-0 35072-4 0 9999 2 25338 098.7817 283.3299 0009474 264.3176 095.6923 14.25818219007576 GO-32 1 25397U 98043D 17271.93261063 .00000014 00000-0 25001-4 0 9995 2 25397 098.6173 212.1177 0002355 071.9020 288.2415 14.23629588998337 ISS 1 25544U 98067A 17272.22914821 .00005385 00000-0 88903-4 0 9991 2 25544 51.6429 239.6594 0004085 324.8164 178.9234 15.54009631 77936 NO-44 1 26931U 01043C 17272.21557999 -.00000005 00000-0 30018-4 0 9997 2 26931 067.0516 182.7856 0006141 257.2458 102.7957 14.30475601835154 SO-50 1 27607U 02058C 17272.18749805 .00000184 00000-0 47188-4 0 9993 2 27607 064.5556 167.7478 0034119 045.3050 315.0822 14.75368176794324 CO-55 1 27844U 03031E 17271.99796112 .00000095 00000-0 62729-4 0 9998 2 27844 098.6908 279.4976 0010662 051.5098 308.7035 14.22062474739034 CO-57 1 27848U 03031J 17271.81481409 .00000080 00000-0 56497-4 0 9992 2 27848 098.7000 279.6190 0010656 060.9407 299.2837 14.21673896738895 RS-22 1 27939U 03042A 17272.29346639 .00000306 00000-0 63451-4 0 9992 2 27939 097.9545 053.7708 0011689 254.2403 187.0730 14.66605890748433 NOAA-18 1 28654U 05018A 17272.26502341 .00000015 00000-0 33166-4 0 9990 2 28654 099.1771 296.9944 0015047 137.3860 222.8481 14.12350590636854 CO-58 1 28895U 05043F 17271.96546234 .00000334 00000-0 73171-4 0 9994 2 28895 097.8773 069.5502 0017078 170.9422 189.2092 14.63443696635663 Falconsat-3 1 30776U 07006E 17272.00448185 .00008525 00000-0 26264-3 0 9998 2 30776 035.4348 127.7238 0003171 206.0154 154.0412 15.32923508584194 CO-65 1 32785U 08021C 17272.21039053 .00000540 00000-0 64471-4 0 9993 2 32785 097.5621 291.7086 0013153 177.0950 183.0346 14.87961088510296 AAUSAT2 1 32788U 08021F 17272.05131823 .00001375 00000-0 13389-3 0 9994 2 32788 097.5509 304.0819 0013042 137.9545 222.2679 14.94016483511180 DO-64 1 32789U 08021G 17272.20787634 .00003861 00000-0 27397-3 0 9995 2 32789 097.5494 328.2097 0014607 106.6304 253.6527 15.05247187512411 CO-66 1 32791U 08021J 17271.98091019 .00000721 00000-0 79513-4 0 9997 2 32791 097.5575 296.1696 0013930 161.8815 198.2902 14.90324664510520 RS-30 1 32953U 08025A 17272.18910354 .00000006 00000-0 -28032-4 0 9993 2 32953 082.5062 174.9926 0020206 058.6797 301.6257 12.43079288424342 PRISM 1 33493U 09002B 17272.18919229 .00002086 00000-0 19197-3 0 9999 2 33493 098.1532 158.9362 0016940 097.3048 263.0125 14.95842086471320 NOAA-19 1 33591U 09005A 17272.20681725 .00000144 00000-0 10365-3 0 9992 2 33591 099.1053 240.5715 0013775 344.2862 015.7879 14.12215210445072 TISAT-1 1 36799U 10035E 17272.13630024 .00000935 00000-0 10174-3 0 9994 2 36799 098.0742 037.0491 0012041 352.1742 007.9285 14.90517504391068 JUGNU 1 37839U 11058B 17272.14099545 .00000319 00000-0 28017-4 0 9996 2 37839 019.9604 180.1552 0018877 248.6970 258.2868 14.12594684308419 SRMSAT 1 37841U 11058D 17272.20740073 .00000333 00000-0 37800-4 0 9991 2 37841 019.9713 223.5779 0012023 143.4778 345.7450 14.10585046307981 AO-71 1 37854U 11061E 17271.74924457 .00004036 00000-0 22002-3 0 9998 2 37854 101.6922 198.0227 0166456 128.2996 233.3318 15.04428851322507 HRBE 1 37855U 11061F 17271.76381462 .00003169 00000-0 17128-3 0 9993 2 37855 101.7043 195.7846 0179748 135.4136 226.1695 15.03394265321886 ALMASAT-1 1 38078U 12006B 17272.25390501 .00046511 40520-5 49218-3 0 9999 2 38078 069.4311 211.4745 0290602 137.7342 224.6638 15.26704944300648 HORYU-2 1 38340U 12025D 17272.05578449 .00000481 00000-0 79003-4 0 9995 2 38340 098.3786 279.6499 0010907 327.4196 032.6338 14.75405416278195 RS-40 1 38735U 12041C 17272.23840499 .00000028 00000-0 12752-3 0 9992 2 38735 082.4721 259.2986 0017120 157.7785 202.4039 12.42574949234594 BEESAT-3 1 39134U 13015E 17272.11402563 .00005267 00000-0 26102-3 0 9995 2 39134 064.8650 250.9066 0038671 247.6436 112.0591 15.18206787244875 BEESAT-2 1 39136U 13015G 17271.99725024 .00003544 00000-0 19441-3 0 9996 2 39136 064.8703 263.4539 0034039 267.5586 092.1642 15.15401006244616 ZACUBE-1 1 39417U 13066B 17272.09099293 .00000484 00000-0 67727-4 0 9999 2 39417 097.6199 309.2418 0057825 290.5391 068.9623 14.80777305208152 TRITON-1 1 39427U 13066M 17271.96812134 .00000544 00000-0 94872-4 0 9990 2 39427 097.6375 280.3682 0114703 017.0609 343.4403 14.67520403206070 GOMX-1 1 39430U 13066Q 17271.94339733 .00000528 00000-0 10432-3 0 9992 2 39430 097.6719 263.1049 0153307 075.5119 286.3035 14.58926464205061 LO-74 1 39440U 13066AA 17272.07107729 .00000479 00000-0 74065-4 0 9994 2 39440 097.6222 297.5982 0079760 324.1967 035.3911 14.75518272206218 AO-73 1 39444U 13066AE 17272.08639093 .00000591 00000-0 79899-4 0 9998 2 39444 097.6214 310.4254 0056970 286.8536 072.6435 14.81524305206401 SPROUT 1 39770U 14029E 17272.24341629 .00003037 00000-0 34990-3 0 9993 2 39770 097.8748 010.6181 0008493 355.9215 004.1971 14.86422001181596 DUCHIFAT-1 1 40021U 14033M 17271.99062428 .00001154 00000-0 12543-3 0 9995 2 40021 097.9128 185.2813 0012343 325.4512 034.5902 14.90012694178058 NANOSATCBR1 1 40024U 14033Q 17271.97296294 .00001002 00000-0 11158-3 0 9999 2 40024 097.9081 183.9842 0011640 327.3903 032.6594 14.89320729177470 EO-79 1 40025U 14033R 17272.21009343 .00000776 00000-0 89483-4 0 9999 2 40025 097.9059 183.1052 0011868 329.8524 030.2009 14.88507654177961 DTUSAT-2 1 40030U 14033W 17271.97277993 .00000735 00000-0 85819-4 0 9999 2 40030 097.9020 181.8730 0011227 325.2486 034.7996 14.88125613177379 EO-80 1 40032U 14033Y 17272.22125585 .00000771 00000-0 89916-4 0 9991 2 40032 097.9026 182.1260 0011152 324.7869 035.2610 14.88061956177395 ANTELSAT 1 40034U 14033AA 17272.09735012 .00000523 00000-0 85723-4 0 9997 2 40034 097.8434 152.7268 0058226 319.9136 039.7783 14.73763433175690 VELOX-1 1 40057U 14034E 17272.14085838 .00001062 00000-0 15739-3 0 9991 2 40057 098.1920 013.9514 0012402 087.0633 273.2012 14.77212314175109 DAURIA DX 1 1 40071U 14037C 17272.24295246 .00000481 00000-0 69439-4 0 9998 2 40071 098.3459 027.4995 0009741 080.2681 279.9653 14.81060821174378 UKUBE-1 1 40074U 14037F 17272.09412884 .00001646 00000-0 20672-3 0 9992 2 40074 098.3572 031.7471 0005795 085.0785 275.1128 14.83591183174587 HODOYOSHI-1 1 40299U 14070B 17272.17523513 .00002792 00000-0 12336-3 0 9990 2 40299 097.3978 353.3208 0014776 088.1537 355.4714 15.22461045160769 CHUBUSAT-1 1 40300U 14070C 17272.16940249 .00003118 00000-0 14251-3 0 9992 2 40300 097.3890 350.1387 0022131 097.0166 346.5998 15.21081532160593 QSAT-EOS 1 40301U 14070D 17272.24134008 .00006207 00000-0 25870-3 0 9991 2 40301 097.3826 350.5580 0028957 091.7403 344.3887 15.23673479160670 FIREBIRD FU3 1 40377U 15003B 17272.12548167 .00006239 00000-0 26212-3 0 9999 2 40377 099.1184 116.8455 0135128 018.2937 342.3083 15.15934520146756 FIREBIRD FU4 1 40378U 15003C 17272.11638500 .00006123 00000-0 25702-3 0 9995 2 40378 099.1187 116.8790 0135334 018.2321 342.3690 15.15950858146754 GRIFEX 1 40379U 15003D 17272.20604513 .00003769 00000-0 16961-3 0 9993 2 40379 099.1217 114.3249 0141605 026.7974 334.0477 15.13378279146612 NO-84 1 40654U 15025D 17271.11551127 .00011883 00000-0 21225-3 0 00934 2 40654 054.9921 136.0682 0176213 163.8535 196.8258 15.35253514015513 NO-83 1 40655U 15025E 17271.04228969 .00026233 00000-0 36224-3 0 01056 2 40655 054.9802 104.7439 0139689 181.6847 178.3753 15.46371400015572 DEORBITSAIL 1 40719U 15032E 17272.17464371 .00000880 00000-0 13444-3 0 9999 2 40719 097.9670 164.5662 0016499 163.8524 196.3214 14.76166095119663 NUDT-PHONESAT 1 40900U 15049B 17272.21105397 .00006394 00000-0 29963-3 0 9993 2 40900 097.4448 278.6950 0012699 215.9084 144.1298 15.19976369112250 XW-2A 1 40903U 15049E 17272.15525955 .00005710 00000-0 14839-3 0 9992 2 40903 097.4155 299.1310 0012967 248.6449 111.3413 15.39271854113639 XW-2C 1 40906U 15049H 17272.22761786 .00001730 00000-0 96721-4 0 9996 2 40906 097.4576 275.6613 0014270 208.7866 151.2580 15.14736497111989 XW-2D 1 40907U 15049J 17272.20354653 .00002082 00000-0 11532-3 0 9993 2 40907 097.4548 275.3759 0013707 206.3978 153.6557 15.14854127111980 LILACSAT-2 1 40908U 15049K 17272.24141202 .00001025 00000-0 61182-4 0 9995 2 40908 097.4651 275.0862 0015329 206.1975 153.8483 15.13239666111901 XW-2F 1 40910U 15049M 17272.20887481 .00003351 00000-0 17841-3 0 9996 2 40910 097.4566 276.2339 0014566 203.4676 156.5894 15.15828798111909 XW-2B 1 40911U 15049N 17272.21236057 .00002236 00000-0 12373-3 0 9991 2 40911 097.4589 275.8121 0013612 206.7679 153.2852 15.14811077111885 DCBB 1 40912U 15049P 17272.11994853 .00003933 00000-0 19647-3 0 9992 2 40912 097.4527 278.2817 0015147 194.1691 241.5674 15.17960979112058 TW-1C 1 40926U 15051B 17272.18243994 .00020088 00000-0 43458-3 0 9997 2 40926 97.2202 310.9814 0012313 143.7885 257.2808 15.44427410112960 TW-1A 1 40928U 15051D 17272.15237051 .00008479 00000-0 23659-3 0 9994 2 40928 097.2182 306.0940 0012704 175.3009 223.2452 15.36901601112663 IO-86 1 40931U 15052B 17272.13101748 .00000857 00000-0 30293-4 0 9995 2 40931 005.9971 211.5368 0014190 274.5527 085.2993 14.76544346108350 GomX-3 1 40949U 98067HA 16292.18357804 .08527750 12374-4 77882-3 0 9992 2 40949 51.6055 106.7696 0006699 286.1344 73.8944 16.38002265 59645 LQSat 1 40958U 15057A 17272.18208858 .00000759 00000-0 12569-3 0 9990 2 40958 097.9687 345.6424 0019730 094.3585 265.9907 14.72989950106421 AO-85 1 40967U 15058D 17271.32983438 .00000997 00000-0 13179-3 0 01040 2 40967 064.7772 265.9905 0178240 040.0820 321.3254 14.75505544015010 ATHENOXAT-1 1 41168U 15077C 17272.12308329 .00005513 00000-0 27342-3 0 9992 2 41168 015.0007 129.9613 0011968 014.8536 066.4621 15.11935539098798 ChubuSat-2 1 41338U 16012B 17272.11109815 .00000808 00000-0 56905-4 0 9999 2 41338 031.0028 172.2023 0013824 007.6582 352.4263 14.99816238088606 ChubuSat-3 1 41339U 16012C 17272.09179508 .00000945 00000-0 67381-4 0 9995 2 41339 031.0097 171.3023 0013353 013.7677 346.3343 15.00015727088588 Horyu-4 1 41340U 16012D 17272.08550566 .00001266 00000-0 90803-4 0 9995 2 41340 031.0047 168.1174 0014056 023.6216 336.5063 15.00716332088632 OUFTI-1 1 41458U 16025C 17272.07603523 .00003499 00000-0 18888-3 0 9992 2 41458 098.1740 315.5801 0172360 302.5571 055.9146 15.03635359078193 [email protected] 1 41459U 16025D 17272.30844858 .00002963 00000-0 16203-3 0 9991 2 41459 098.1765 315.7564 0171727 302.2785 056.1905 15.03454361078210 AAUSAT4 1 41460U 16025E 17272.10690235 .00005328 00000-0 28664-3 0 9991 2 41460 098.1700 315.7122 0163752 300.6002 057.9179 15.04509266078212 NODES 1 1 41477U 98067HX 17262.38431888 .17021661 12538-4 46079-3 0 9990 2 41477 51.6074 225.8859 0003017 249.6794 110.5489 16.45625800 77086 NODES 2 1 41478U 98067HY 17266.27255257 .13534231 12598-4 22876-3 0 9990 2 41478 51.6086 206.1528 0005980 262.1280 97.9071 16.47641774 77698 LO-87 1 41557U 16033B 17272.19246478 .00004612 00000-0 17409-3 0 9992 2 41557 097.4568 351.6966 0014115 007.2577 352.8864 15.27442453074306 NuSat2 1 41558U 16033C 17272.17117768 .00004898 00000-0 18576-3 0 9992 2 41558 97.4596 351.7408 0013534 6.3593 353.7815 15.27263529 74291 Lapan A3 1 41603U 16040E 17272.22824255 .00000776 00000-0 39762-4 0 9995 2 41603 097.4498 332.9094 0015298 073.6757 357.6437 15.19421059070455 Swayam 1 41607U 16040J 17271.94658323 .00005213 00000-0 23592-3 0 9992 2 41607 097.4501 333.1672 0015800 076.1657 284.1336 15.21224280070378 Pratham 1 41783U 16059A 17272.12958500 .00000163 00000-0 41125-4 0 9990 2 41783 098.1563 332.3698 0033417 192.7692 167.2667 14.62862893053793 AlSat 1N 1 41789U 16059G 17272.16868901 .00000587 00000-0 12051-3 0 9990 2 41789 098.1566 333.1114 0028529 185.3185 174.7723 14.64081510053828 ScatSat 1 41790U 16059H 17272.21049530 .00000053 00000-0 24691-4 0 9999 2 41790 098.2999 319.1853 0018420 167.9126 192.2514 14.50840605053348 TY-1 1 41844U 16066D 17272.21759466 .00003902 00000-0 17171-3 0 9993 2 41844 097.4069 277.8236 0014447 229.4939 261.3142 15.22365802049164 CAS-2T 1 41845U 16066E 17272.08702538 .00000290 00000-0 55606-4 0 9990 2 41845 098.7736 290.1859 0365473 299.9610 056.5789 14.37804491046429 Pegasus-1 1 41846U 16066F 17272.19257837 .00000803 00000-0 13418-3 0 9994 2 41846 098.7779 290.0037 0368059 301.2982 055.2650 14.37131225046416 STARS-C 1 41895U 98067KR 17272.14682396 .00087373 00000-0 74598-3 0 9999 2 41895 051.6352 227.3850 0003612 033.7151 326.4075 15.68754343044269 Tancredo 1 1 41931U 98067KT 17272.01354959 .00455476 00000-0 14733-2 0 9994 2 41931 51.6275 217.3615 0002314 131.3597 228.7607 15.89120732 39956 TO-89 1 41932U 98067KU 17272.13766631 .00039990 00000-0 44145-3 0 9992 2 41932 051.6389 231.8839 0003424 312.5715 047.4990 15.62655094039776 AOBA-V3LOX3 1 41935U 98067KX 17272.09700365 .00047638 00000-0 50984-3 0 9998 2 41935 051.6384 231.6036 0002914 322.2183 037.8607 15.63371629039870 OSNSAT 1 41939U 98067KZ 17271.26954155 .00144987 00000-0 10635-2 0 9991 2 41939 51.6344 229.0073 0002219 341.1048 18.9867 15.72170333 39080 EO-88 1 42017U 17008BX 17272.10144086 .00005539 00000-0 23559-3 0 9992 2 42017 097.4847 333.3204 0005868 203.4736 156.6233 15.23418550034305 HAVELSAT 1 42700U 98067LH 17271.98257669 .00042096 00000-0 53340-3 0 9992 2 42700 051.6387 238.3225 0006171 006.9082 353.1995 15.59019142021117 SOMP2 1 42701U 98067LJ 17272.12508074 .00039125 00000-0 50256-3 0 9991 2 42701 051.6380 237.7775 0006040 007.5813 352.5270 15.58692505021127 Columbia 1 42702U 98067LK 17272.23026978 .00084107 00000-0 88589-3 0 9992 2 42702 051.6371 235.4734 0005495 018.5235 341.5959 15.63528094021096 PHOENIX 1 42706U 98067LP 17272.05475893 .00038950 00000-0 49794-3 0 9990 2 42706 051.6380 238.0597 0001613 026.3322 333.7752 15.58837429021035 X-CubeSat 1 42707U 98067LQ 17272.11805954 .00041732 00000-0 53043-3 0 9997 2 42707 051.6373 237.7264 0001679 028.4847 331.6237 15.58958660021038 qbee 1 42708U 98067LR 17271.92976147 .00039881 00000-0 50950-3 0 9995 2 42708 051.6369 238.7192 0001687 026.9662 333.1418 15.58843914020966 ZA-AeroSat 1 42713U 98067LU 17272.15526856 .00030939 00000-0 40870-3 0 9990 2 42713 051.6384 237.9776 0001006 319.3637 040.7280 15.58079597020702 LINK 1 42714U 98067LV 17272.12257162 .00047277 00000-0 58757-3 0 9995 2 42714 051.6372 237.7543 0000972 350.6903 009.4072 15.59496511020818 UPSat 1 42716U 98067LX 17272.10747410 .00048544 00000-0 60417-3 0 9999 2 42716 051.6386 237.6587 0004723 016.7862 343.3287 15.59437896020835 SpaceCube 1 42717U 98067LY 17272.06928003 .00038786 00000-0 49802-3 0 9996 2 42717 051.6383 238.1522 0004666 014.5124 345.6002 15.58714407020061 Hoopoe 1 42718U 98067LZ 17271.92804388 .00044486 00000-0 56245-3 0 9993 2 42718 051.6376 238.7100 0004643 014.1387 345.9735 15.59060867020043 Challenger 1 42721U 98067MA 17272.17570697 .00062642 00000-0 75844-3 0 9998 2 42721 051.6371 237.3567 0006516 350.6343 009.4527 15.60043082019787 NJUST-1 1 42722U 98067MB 17272.18056337 .00032205 00000-0 42840-3 0 9992 2 42722 051.6383 238.1429 0006875 346.6668 013.4142 15.57850096019774 UNSW-EC0 1 42723U 98067MC 17271.50874286 .00057329 00000-0 72835-3 0 9990 2 42723 51.6388 241.1592 0006654 346.7950 13.2867 15.58810046 19656 DUTHsat 1 42724U 98067MD 17272.12357577 .00052720 00000-0 64637-3 0 9990 2 42724 051.6381 237.7642 0005821 355.8610 004.2334 15.59791261019675 LO-90 1 42725U 98067ME 17272.11479259 .00039600 00000-0 51967-3 0 9996 2 42725 051.6384 238.4561 0005947 352.1383 007.9515 15.58117103019669 nSIGHT1 1 42726U 98067MF 17271.96475603 .00021089 00000-0 29562-3 0 9996 2 42726 051.6390 239.7061 0006249 349.6763 010.4100 15.56699785019641 QBITO 1 42728U 98067MH 17272.22220082 .00037890 00000-0 48949-3 0 9994 2 42728 051.6397 237.6795 0003765 011.0619 349.0455 15.58567349019490 Aalto-2 1 42729U 98067MJ 17272.15799166 .00041927 00000-0 54090-3 0 9991 2 42729 051.6388 237.9958 0003701 010.7624 349.3448 15.58556711019493 SUSat 1 42730U 98067MK 17272.10043269 .00040104 00000-0 52163-3 0 9999 2 42730 051.6383 238.3589 0003694 007.3534 352.7512 15.58359495019476 i-INSPIRE II 1 42731U 98067ML 17272.20777155 .00039975 00000-0 50580-3 0 9994 2 42731 051.6370 237.5665 0005160 293.4117 066.6333 15.59086670019547 PolyITAN-2-SAU 1 42732U 98067MM 17271.32054458 .00052240 00000-0 67058-3 0 9999 2 42732 51.6379 242.1422 0005507 289.0076 71.0320 15.58583846 19407 SNUSAT-1 1 42733U 98067MN 17272.10048337 .00035182 00000-0 45809-3 0 9992 2 42733 051.6378 238.3524 0005492 293.7762 066.2654 15.58386035019524 ExAlta-1 1 42734U 98067MP 17271.37578549 .00053290 00000-0 67532-3 0 9991 2 42734 51.6373 241.7621 0007335 317.3911 42.6512 15.58902816 19367 Aoxiang-1 1 42735U 98067MQ 17272.17702065 .00033679 00000-0 44624-3 0 9999 2 42735 051.6379 238.1181 0007388 342.4185 017.6550 15.57929139020907 BeEagleSat 1 42736U 98067MR 17272.17247053 .00037408 00000-0 49084-3 0 9990 2 42736 051.6378 238.0878 0007241 342.2367 017.8371 15.58138268019599 Atlantis 1 42737U 98067MS 17272.17950718 .00079432 00000-0 88083-3 0 9995 2 42737 051.6360 236.6256 0006118 350.9769 009.1114 15.62229865019508 CAS-4B 1 42759U 17034B 17271.98199204 .00001311 00000-0 95003-4 0 9999 2 42759 043.0193 076.9702 0009017 276.4311 229.5138 15.09017583015983 CAS-4A 1 42761U 17034D 17271.97781027 .00001345 00000-0 96927-4 0 9994 2 42761 43.0199 76.9292 0009422 276.1303 235.2626 15.09091825 15970 UCLSat 1 42765U 17036A 17271.84813915 .00003966 00000-0 18179-3 0 9991 2 42765 097.4394 330.4515 0010389 272.0733 087.9312 15.20999917015567 NIUSat 1 42766U 17036B 17272.12698117 .00003552 00000-0 16915-3 0 9996 2 42766 097.4396 330.5422 0014660 254.9775 104.9837 15.19699502014879 LituanicaSAT 2 1 42768U 17036D 17272.11535816 .00007182 00000-0 33535-3 0 9993 2 42768 097.4397 330.5546 0014691 258.1461 101.8127 15.20032518014880 InflateSail 1 42770U 17036F 17245.93730135 .99999999 00000-0 73960-1 0 9995 2 42770 097.4262 306.2162 0014869 278.7167 080.9844 16.07641391010932 Aalto 1 1 42775U 17036L 17272.22717692 .00003256 00000-0 15336-3 0 9994 2 42775 097.4373 330.7090 0013187 256.9056 103.0721 15.20165381014848 URSA MAIOR 1 42776U 17036M 17272.22467021 .00002945 00000-0 13885-3 0 9994 2 42776 097.4395 330.7184 0012697 255.8180 104.1645 15.20208645014846 Max Valier Sat 1 42778U 17036P 17272.19979283 .00003374 00000-0 15684-3 0 9996 2 42778 097.4412 330.7712 0011197 261.7490 098.2476 15.20617702014831 Pegasus 1 42784U 17036V 17272.11995160 .00004285 00000-0 19694-3 0 9994 2 42784 097.4396 330.7029 0010920 270.7167 089.2817 15.20858014014825 NUDATSat 1 42787U 17036Y 17272.11068972 .00006524 00000-0 29615-3 0 9991 2 42787 097.4398 330.7147 0010569 270.7013 089.3011 15.21087988014664 SUCHAI 1 1 42788U 17036Z 17272.11324535 .00005053 00000-0 23074-3 0 9991 2 42788 097.4396 330.7103 0010568 270.8673 089.1352 15.20994840014891 SKCUBE 1 42789U 17036AA 17272.17669137 .00004775 00000-0 21807-3 0 9990 2 42789 097.4395 330.7773 0010391 270.6504 089.3541 15.21018631014820 VZLUSAT 1 1 42790U 17036AB 17272.10535925 .00005564 00000-0 25273-3 0 9990 2 42790 097.4393 330.7168 0010119 271.2477 088.7599 15.21136495014816 VENTA 1 1 42791U 17036AC 17272.23583478 .00004190 00000-0 19122-3 0 9991 2 42791 097.4394 330.8505 0009992 271.2390 088.7701 15.21116672014826 Robusta 1B 1 42792U 17036AD 17272.23446647 .00004692 00000-0 21355-3 0 9996 2 42792 097.4392 330.8493 0009962 271.7944 088.2150 15.21150604014846 D-SAT 1 42794U 17036AF 17272.15338432 .00002648 00000-0 12143-3 0 9995 2 42794 097.4388 330.8006 0008211 270.0961 089.9334 15.21303065014821 BIRD-J 1 42820U 98067MU 17272.10916071 .00033188 00000-0 44817-3 0 9990 2 42820 051.6381 239.1645 0001497 282.8978 077.1847 15.57453757013059 BIRD-G 1 42821U 98067MV 17271.91992695 .00034026 00000-0 46129-3 0 9995 2 42821 051.6381 240.1502 0001579 285.7647 074.3171 15.57335492012985 BIRD-M 1 42822U 98067MW 17272.17735045 .00034683 00000-0 46949-3 0 9998 2 42822 051.6381 238.8696 0001625 291.7295 068.3523 15.57366715013046 BIRD-B 1 42823U 98067MX 17272.17928066 .00035678 00000-0 48277-3 0 9997 2 42823 051.6383 238.8847 0005162 303.4568 056.5931 15.57352377013042 BIRD-N 1 42824U 98067MY 17272.18250925 .00035257 00000-0 47849-3 0 9998 2 42824 051.6384 238.9063 0005033 305.2649 054.7872 15.57278996013040 TechnoSat 1 42829U 17042E 17272.19449189 .00000438 00000-0 50106-4 0 9994 2 42829 097.6077 179.1240 0014159 353.9269 006.1776 14.90676839011444 Mayak 1 42830U 17042F 17272.19110529 .00001961 00000-0 20440-3 0 9998 2 42830 097.6078 179.1344 0014563 351.7009 008.3967 14.90811122011441 OBJECT MZ 1 42910U 98067MZ 17272.16425119 .00026923 00000-0 37997-3 0 9994 2 42910 051.6372 239.5270 0006739 326.5511 033.5054 15.56357400006628 OBJECT NA 1 42911U 98067NA 17272.22887096 .00029101 00000-0 40938-3 0 9998 2 42911 051.6389 239.2157 0006121 322.9206 037.1362 15.56404884006614 OBJECT NB 1 42912U 98067NB 17272.16923339 .00032106 00000-0 45448-3 0 9993 2 42912 051.6359 239.5507 0006011 337.4150 022.6576 15.56183673006628 OBJECT NC 1 42913U 98067NC 17272.15976938 .00046212 00000-0 63202-3 0 9997 2 42913 051.6373 239.4956 0005275 353.8107 006.2818 15.56944396006621 OBJECT ND 1 42914U 98067ND 17272.23521744 .00028232 00000-0 40172-3 0 9991 2 42914 051.6385 239.2552 0005675 330.4512 029.6158 15.56114892006604 /EX